Location: La Pernelle
(49.6188°N, 1.2999°W)
Time: 10:00:40
(UTC+00:00)

Meteor 2-20 - Pass Details

Date: 23 October 2021
Orbit: 939 x 958 km, 82.5° (Epoch: 08 December)

Event Time Altitude Azimuth Distance (km) Brightness Sun altitude
Rises 05:36:59 0° 183° (S) 3,608 7.5 -10.7°
Reaches altitude 10° 05:39:28 10° 182° (S) 2,665 6.9 -10.3°
Maximum altitude 05:45:33 78° 97° (E) 972 4.7 -9.4°
Drops below altitude 10° 05:51:39 10° 12° (NNE) 2,671 6.9 -8.4°
Sets 05:54:08 0° 12° (NNE) 3,618 7.5 -8.0°
